Location: Burbank
(38.7788°N, 114.0429°W)
Time: 23:25:09
(UTC+00:00)

S-56A Canister/Altair - Pass Details

Date: 11 May 2026
Orbit: 633 x 2484 km, 38.9° (Epoch: 1 June)

Event Time Altitude Azimuth Distance (km) Brightness Sun altitude
Rises 12:47:56 0° 269° (W) 4,163 10.7 2.8°
Reaches altitude 10° 12:52:20 10° 245° (WSW) 3,567 10.3 3.7°
Maximum altitude 12:56:37 14° 217° (SW) 3,590 10.5 4.4°
Drops below altitude 10° 13:01:36 10° 191° (S) 4,271 11.1 5.4°
Sets 13:08:04 0° 170° (S) 5,661 11.9 6.6°
